Year,Month,Day,Hour,Minute,Value (Times are PST for temperature in C)
2013,08,22,00,00,12.90
2013,08,22,00,01,12.90
2013,08,22,00,02,12.90
2013,08,22,00,03,12.90
2013,08,22,00,04,12.90
2013,08,22,00,05,12.90
2013,08,22,00,06,12.90
2013,08,22,00,07,12.90
2013,08,22,00,08,12.90
2013,08,22,00,09,12.90
2013,08,22,00,10,12.90
2013,08,22,00,11,12.90
2013,08,22,00,12,12.80
2013,08,22,00,13,12.80
2013,08,22,00,14,12.80
2013,08,22,00,15,12.80
2013,08,22,00,16,12.80
2013,08,22,00,17,12.70
2013,08,22,00,18,12.70
2013,08,22,00,19,12.70
2013,08,22,00,20,12.70
2013,08,22,00,21,12.70
2013,08,22,00,22,12.70
2013,08,22,00,23,12.60
2013,08,22,00,24,12.60
2013,08,22,00,25,12.60
2013,08,22,00,26,12.60
2013,08,22,00,27,12.60
2013,08,22,00,28,12.60
2013,08,22,00,29,12.50
2013,08,22,00,30,12.50
2013,08,22,00,31,12.50
2013,08,22,00,32,12.50
2013,08,22,00,33,12.50
2013,08,22,00,34,12.50
2013,08,22,00,35,12.50
2013,08,22,00,36,12.50
2013,08,22,00,37,12.50
2013,08,22,00,38,12.50
2013,08,22,00,39,12.50
2013,08,22,00,40,12.60
2013,08,22,00,41,12.50
2013,08,22,00,42,12.50
2013,08,22,00,43,12.50
2013,08,22,00,44,12.50
2013,08,22,00,45,12.50
2013,08,22,00,46,12.50
2013,08,22,00,47,12.40
2013,08,22,00,48,12.40
2013,08,22,00,49,12.40
2013,08,22,00,50,12.30
2013,08,22,00,51,12.30
2013,08,22,00,52,12.30
2013,08,22,00,53,12.20
2013,08,22,00,54,12.20
2013,08,22,00,55,12.20
2013,08,22,00,56,12.10
2013,08,22,00,57,12.10
2013,08,22,00,58,12.10
2013,08,22,00,59,12.10
2013,08,22,01,00,12.10
2013,08,22,01,01,12.00
2013,08,22,01,02,12.00
2013,08,22,01,03,12.00
2013,08,22,01,04,12.00
2013,08,22,01,05,11.90
2013,08,22,01,06,11.90
2013,08,22,01,07,11.90
2013,08,22,01,08,11.90
2013,08,22,01,09,11.90
2013,08,22,01,10,11.90
2013,08,22,01,11,11.90
2013,08,22,01,12,11.90
2013,08,22,01,13,11.90
2013,08,22,01,14,11.90
2013,08,22,01,15,11.90
2013,08,22,01,16,11.80
2013,08,22,01,17,11.80
2013,08,22,01,18,11.80
2013,08,22,01,19,11.70
2013,08,22,01,20,11.70
2013,08,22,01,21,11.60
2013,08,22,01,22,11.60
2013,08,22,01,23,11.60
2013,08,22,01,24,11.60
2013,08,22,01,25,11.60
2013,08,22,01,26,11.60
2013,08,22,01,27,11.60
2013,08,22,01,28,11.60
2013,08,22,01,29,11.60
2013,08,22,01,30,11.60
2013,08,22,01,31,11.60
2013,08,22,01,32,11.60
2013,08,22,01,33,11.60
2013,08,22,01,34,11.60
2013,08,22,01,35,11.60
2013,08,22,01,36,11.60
2013,08,22,01,37,11.60
2013,08,22,01,38,11.60
2013,08,22,01,39,11.60
2013,08,22,01,40,11.60
2013,08,22,01,41,11.60
2013,08,22,01,42,11.60
2013,08,22,01,43,11.60
2013,08,22,01,44,11.60
2013,08,22,01,45,11.60
2013,08,22,01,46,11.60
2013,08,22,01,47,11.60
2013,08,22,01,48,11.60
2013,08,22,01,49,11.60
2013,08,22,01,50,11.60
2013,08,22,01,51,11.70
2013,08,22,01,52,11.70
2013,08,22,01,53,11.60
2013,08,22,01,54,11.60
2013,08,22,01,55,11.60
2013,08,22,01,56,11.60
2013,08,22,01,57,11.50
2013,08,22,01,58,11.50
2013,08,22,01,59,11.40
2013,08,22,02,00,11.40
2013,08,22,02,01,11.40
2013,08,22,02,02,11.30
2013,08,22,02,03,11.30
2013,08,22,02,04,11.30
2013,08,22,02,05,11.30
2013,08,22,02,06,11.20
2013,08,22,02,07,11.20
2013,08,22,02,08,11.20
2013,08,22,02,09,11.20
2013,08,22,02,10,11.20
2013,08,22,02,11,11.20
2013,08,22,02,12,11.20
2013,08,22,02,13,11.20
2013,08,22,02,14,11.20
2013,08,22,02,15,11.10
2013,08,22,02,16,11.10
2013,08,22,02,17,11.10
2013,08,22,02,18,11.10
2013,08,22,02,19,11.10
2013,08,22,02,20,11.10
2013,08,22,02,21,11.20
2013,08,22,02,22,11.10
2013,08,22,02,23,11.20
2013,08,22,02,24,11.20
2013,08,22,02,25,11.20
2013,08,22,02,26,11.20
2013,08,22,02,27,11.20
2013,08,22,02,28,11.20
2013,08,22,02,29,11.20
2013,08,22,02,30,11.20
2013,08,22,02,31,11.20
2013,08,22,02,32,11.20
2013,08,22,02,33,11.20
2013,08,22,02,34,11.20
2013,08,22,02,35,11.20
2013,08,22,02,36,11.20
2013,08,22,02,37,11.20
2013,08,22,02,38,11.20
2013,08,22,02,39,11.20
2013,08,22,02,40,11.20
2013,08,22,02,41,11.20
2013,08,22,02,42,11.20
2013,08,22,02,43,11.10
2013,08,22,02,44,11.10
2013,08,22,02,45,11.10
2013,08,22,02,46,11.00
2013,08,22,02,47,11.00
2013,08,22,02,48,11.00
2013,08,22,02,49,10.90
2013,08,22,02,50,10.90
2013,08,22,02,51,10.90
2013,08,22,02,52,10.80
2013,08,22,02,53,10.80
2013,08,22,02,54,10.80
2013,08,22,02,55,10.80
2013,08,22,02,56,10.80
2013,08,22,02,57,10.80
2013,08,22,02,58,10.80
2013,08,22,02,59,10.80
2013,08,22,03,00,10.80
2013,08,22,03,01,10.80
2013,08,22,03,02,10.80
2013,08,22,03,03,10.80
2013,08,22,03,04,10.80
2013,08,22,03,05,10.70
2013,08,22,03,06,10.70
2013,08,22,03,07,10.70
2013,08,22,03,08,10.70
2013,08,22,03,09,10.60
2013,08,22,03,10,10.60
2013,08,22,03,11,10.60
2013,08,22,03,12,10.60
2013,08,22,03,13,10.60
2013,08,22,03,14,10.50
2013,08,22,03,15,10.50
2013,08,22,03,16,10.50
2013,08,22,03,17,10.50
2013,08,22,03,18,10.50
2013,08,22,03,19,10.40
2013,08,22,03,20,10.40
2013,08,22,03,21,10.40
2013,08,22,03,22,10.40
2013,08,22,03,23,10.40
2013,08,22,03,24,10.40
2013,08,22,03,25,10.40
2013,08,22,03,26,10.40
2013,08,22,03,27,10.40
2013,08,22,03,28,10.40
2013,08,22,03,29,10.50
2013,08,22,03,30,10.50
2013,08,22,03,31,10.50
2013,08,22,03,32,10.50
2013,08,22,03,33,10.50
2013,08,22,03,34,10.50
2013,08,22,03,35,10.50
2013,08,22,03,36,10.50
2013,08,22,03,37,10.50
2013,08,22,03,38,10.50
2013,08,22,03,39,10.50
2013,08,22,03,40,10.50
2013,08,22,03,41,10.50
2013,08,22,03,42,10.50
2013,08,22,03,43,10.40
2013,08,22,03,44,10.50
2013,08,22,03,45,10.40
2013,08,22,03,46,10.40
2013,08,22,03,47,10.40
2013,08,22,03,48,10.40
2013,08,22,03,49,10.40
2013,08,22,03,50,10.40
2013,08,22,03,51,10.40
2013,08,22,03,52,10.40
2013,08,22,03,53,10.40
2013,08,22,03,54,10.40
2013,08,22,03,55,10.40
2013,08,22,03,56,10.30
2013,08,22,03,57,10.30
2013,08,22,03,58,10.30
2013,08,22,03,59,10.20
2013,08,22,04,00,10.20
2013,08,22,04,01,10.20
2013,08,22,04,02,10.20
2013,08,22,04,03,10.20
2013,08,22,04,04,10.20
2013,08,22,04,05,10.20
2013,08,22,04,06,10.20
2013,08,22,04,07,10.20
2013,08,22,04,08,10.20
2013,08,22,04,09,10.20
2013,08,22,04,10,10.30
2013,08,22,04,11,10.30
2013,08,22,04,12,10.30
2013,08,22,04,13,10.30
2013,08,22,04,14,10.30
2013,08,22,04,15,10.30
2013,08,22,04,16,10.30
2013,08,22,04,17,10.30
2013,08,22,04,18,10.30
2013,08,22,04,19,10.30
2013,08,22,04,20,10.30
2013,08,22,04,21,10.30
2013,08,22,04,22,10.30
2013,08,22,04,23,10.30
2013,08,22,04,24,10.30
2013,08,22,04,25,10.30
2013,08,22,04,26,10.30
2013,08,22,04,27,10.30
2013,08,22,04,28,10.30
2013,08,22,04,29,10.30
2013,08,22,04,30,10.30
2013,08,22,04,31,10.30
2013,08,22,04,32,10.30
2013,08,22,04,33,10.30
2013,08,22,04,34,10.30
2013,08,22,04,35,10.30
2013,08,22,04,36,10.40
2013,08,22,04,37,10.40
2013,08,22,04,38,10.40
2013,08,22,04,39,10.40
2013,08,22,04,40,10.40
2013,08,22,04,41,10.40
2013,08,22,04,42,10.40
2013,08,22,04,43,10.40
2013,08,22,04,44,10.40
2013,08,22,04,45,10.40
2013,08,22,04,46,10.30
2013,08,22,04,47,10.30
2013,08,22,04,48,10.30
2013,08,22,04,49,10.30
2013,08,22,04,50,10.30
2013,08,22,04,51,10.30
2013,08,22,04,52,10.20
2013,08,22,04,53,10.20
2013,08,22,04,54,10.20
2013,08,22,04,55,10.20
2013,08,22,04,56,10.20
2013,08,22,04,57,10.20
2013,08,22,04,58,10.20
2013,08,22,04,59,10.20
2013,08,22,05,00,10.20
2013,08,22,05,01,10.20
2013,08,22,05,02,10.20
2013,08,22,05,03,10.20
2013,08,22,05,04,10.10
2013,08,22,05,05,10.10
2013,08,22,05,06,10.10
2013,08,22,05,07,10.00
2013,08,22,05,08,10.00
2013,08,22,05,09,10.00
2013,08,22,05,10,9.90
2013,08,22,05,11,9.90
2013,08,22,05,12,9.90
2013,08,22,05,13,9.90
2013,08,22,05,14,9.90
2013,08,22,05,15,9.90
2013,08,22,05,16,9.80
2013,08,22,05,17,9.80
2013,08,22,05,18,9.80
2013,08,22,05,19,9.80
2013,08,22,05,20,9.80
2013,08,22,05,21,9.80
2013,08,22,05,22,9.80
2013,08,22,05,23,9.80
2013,08,22,05,24,9.80
2013,08,22,05,25,9.80
2013,08,22,05,26,9.80
2013,08,22,05,27,9.80
2013,08,22,05,28,9.80
2013,08,22,05,29,9.80
2013,08,22,05,30,9.80
2013,08,22,05,31,9.80
2013,08,22,05,32,9.80
2013,08,22,05,33,9.80
2013,08,22,05,34,9.70
2013,08,22,05,35,9.70
2013,08,22,05,36,9.70
2013,08,22,05,37,9.70
2013,08,22,05,38,9.70
2013,08,22,05,39,9.70
2013,08,22,05,40,9.70
2013,08,22,05,41,9.70
2013,08,22,05,42,9.70
2013,08,22,05,43,9.70
2013,08,22,05,44,9.70
2013,08,22,05,45,9.70
2013,08,22,05,46,9.70
2013,08,22,05,47,9.70
2013,08,22,05,48,9.70
2013,08,22,05,49,9.70
2013,08,22,05,50,9.70
2013,08,22,05,51,9.70
2013,08,22,05,52,9.70
2013,08,22,05,53,9.70
2013,08,22,05,54,9.70
2013,08,22,05,55,9.80
2013,08,22,05,56,9.80
2013,08,22,05,57,9.80
2013,08,22,05,58,9.80
2013,08,22,05,59,9.80
2013,08,22,06,00,9.80
2013,08,22,06,01,9.80
2013,08,22,06,02,9.80
2013,08,22,06,03,9.80
2013,08,22,06,04,9.80
2013,08,22,06,05,9.90
2013,08,22,06,06,9.90
2013,08,22,06,07,9.90
2013,08,22,06,08,9.90
2013,08,22,06,09,9.90
2013,08,22,06,10,9.90
2013,08,22,06,11,9.90
2013,08,22,06,12,9.90
2013,08,22,06,13,9.90
2013,08,22,06,14,9.90
2013,08,22,06,15,9.90
2013,08,22,06,16,9.80
2013,08,22,06,17,9.80
2013,08,22,06,18,9.80
2013,08,22,06,19,9.80
2013,08,22,06,20,9.80
2013,08,22,06,21,9.70
2013,08,22,06,22,9.70
2013,08,22,06,23,9.70
2013,08,22,06,24,9.70
2013,08,22,06,25,9.60
2013,08,22,06,26,9.60
2013,08,22,06,27,9.60
2013,08,22,06,28,9.60
2013,08,22,06,29,9.50
2013,08,22,06,30,9.50
2013,08,22,06,31,9.40
2013,08,22,06,32,9.40
2013,08,22,06,33,9.30
2013,08,22,06,34,9.30
2013,08,22,06,35,9.30
2013,08,22,06,36,9.30
2013,08,22,06,37,9.20
2013,08,22,06,38,9.20
2013,08,22,06,39,9.20
2013,08,22,06,40,9.20
2013,08,22,06,41,9.20
2013,08,22,06,42,9.20
2013,08,22,06,43,9.20
2013,08,22,06,44,9.20
2013,08,22,06,45,9.20
2013,08,22,06,46,9.20
2013,08,22,06,47,9.20
2013,08,22,06,48,9.20
2013,08,22,06,49,9.20
2013,08,22,06,50,9.20
2013,08,22,06,51,9.20
2013,08,22,06,52,9.20
2013,08,22,06,53,9.20
2013,08,22,06,54,9.20
2013,08,22,06,55,9.30
2013,08,22,06,56,9.30
2013,08,22,06,57,9.30
2013,08,22,06,58,9.30
2013,08,22,06,59,9.30
2013,08,22,07,00,9.40
2013,08,22,07,01,9.40
2013,08,22,07,02,9.40
2013,08,22,07,03,9.40
2013,08,22,07,04,9.40
2013,08,22,07,05,9.40
2013,08,22,07,06,9.40
2013,08,22,07,07,9.50
2013,08,22,07,08,9.50
2013,08,22,07,09,9.50
2013,08,22,07,10,9.50
2013,08,22,07,11,9.60
2013,08,22,07,12,9.60
2013,08,22,07,13,9.60
2013,08,22,07,14,9.60
2013,08,22,07,15,9.60
2013,08,22,07,16,9.60
2013,08,22,07,17,9.70
2013,08,22,07,18,9.70
2013,08,22,07,19,9.70
2013,08,22,07,20,9.70
2013,08,22,07,21,9.80
2013,08,22,07,22,9.80
2013,08,22,07,23,9.80
2013,08,22,07,24,9.90
2013,08,22,07,25,9.90
2013,08,22,07,26,10.00
2013,08,22,07,27,10.10
2013,08,22,07,28,10.10
2013,08,22,07,29,10.20
2013,08,22,07,30,10.20
2013,08,22,07,31,10.20
2013,08,22,07,32,10.30
2013,08,22,07,33,10.30
2013,08,22,07,34,10.30
2013,08,22,07,35,10.40
2013,08,22,07,36,10.40
2013,08,22,07,37,10.40
2013,08,22,07,38,10.50
2013,08,22,07,39,10.50
2013,08,22,07,40,10.60
2013,08,22,07,41,10.60
2013,08,22,07,42,10.60
2013,08,22,07,43,10.70
2013,08,22,07,44,10.70
2013,08,22,07,45,10.70
2013,08,22,07,46,10.80
2013,08,22,07,47,10.80
2013,08,22,07,48,10.80
2013,08,22,07,49,10.80
2013,08,22,07,50,10.90
2013,08,22,07,51,10.90
2013,08,22,07,52,10.90
2013,08,22,07,53,11.00
2013,08,22,07,54,11.10
2013,08,22,07,55,11.10
2013,08,22,07,56,11.20
2013,08,22,07,57,11.20
2013,08,22,07,58,11.30
2013,08,22,07,59,11.40
2013,08,22,08,00,11.40
2013,08,22,08,01,11.50
2013,08,22,08,02,11.50
2013,08,22,08,03,11.60
2013,08,22,08,04,11.70
2013,08,22,08,05,11.70
2013,08,22,08,06,11.80
2013,08,22,08,07,11.90
2013,08,22,08,08,12.00
2013,08,22,08,09,12.10
2013,08,22,08,10,12.20
2013,08,22,08,11,12.30
2013,08,22,08,12,12.40
2013,08,22,08,13,12.50
2013,08,22,08,14,12.60
2013,08,22,08,15,12.70
2013,08,22,08,16,12.80
2013,08,22,08,17,12.90
2013,08,22,08,18,13.10
2013,08,22,08,19,13.20
2013,08,22,08,20,13.30
2013,08,22,08,21,13.40
2013,08,22,08,22,13.60
2013,08,22,08,23,13.80
2013,08,22,08,24,13.90
2013,08,22,08,25,14.00
2013,08,22,08,26,14.20
2013,08,22,08,27,14.30
2013,08,22,08,28,14.50
2013,08,22,08,29,14.60
2013,08,22,08,30,14.80
2013,08,22,08,31,14.90
2013,08,22,08,32,15.10
2013,08,22,08,33,15.20
2013,08,22,08,34,15.30
2013,08,22,08,35,15.50
2013,08,22,08,36,15.60
2013,08,22,08,37,15.70
2013,08,22,08,38,15.90
2013,08,22,08,39,16.00
2013,08,22,08,40,16.10
2013,08,22,08,41,16.30
2013,08,22,08,42,16.40
2013,08,22,08,43,16.60
2013,08,22,08,44,16.70
2013,08,22,08,45,16.90
2013,08,22,08,46,17.00
2013,08,22,08,47,17.20
2013,08,22,08,48,17.30
2013,08,22,08,49,17.40
2013,08,22,08,50,17.50
2013,08,22,08,51,17.70
2013,08,22,08,52,17.80
2013,08,22,08,53,17.90
2013,08,22,08,54,18.00
2013,08,22,08,55,18.10
2013,08,22,08,56,18.10
2013,08,22,08,57,18.20
2013,08,22,08,58,18.30
2013,08,22,08,59,18.30
2013,08,22,09,00,18.40
2013,08,22,09,01,18.50
2013,08,22,09,02,18.50
2013,08,22,09,03,18.60
2013,08,22,09,04,18.60
2013,08,22,09,05,18.70
2013,08,22,09,06,18.80
2013,08,22,09,07,18.80
2013,08,22,09,08,18.80
2013,08,22,09,09,18.90
2013,08,22,09,10,18.90
2013,08,22,09,11,19.00
2013,08,22,09,12,19.00
2013,08,22,09,13,19.00
2013,08,22,09,14,19.00
2013,08,22,09,15,19.10
2013,08,22,09,16,19.10
2013,08,22,09,17,19.10
2013,08,22,09,18,19.10
2013,08,22,09,19,19.10
2013,08,22,09,20,19.10
2013,08,22,09,21,19.10
2013,08,22,09,22,19.10
2013,08,22,09,23,19.10
2013,08,22,09,24,19.10
2013,08,22,09,25,19.20
2013,08,22,09,26,19.20
2013,08,22,09,27,19.20
2013,08,22,09,28,19.20
2013,08,22,09,29,19.20
2013,08,22,09,30,19.30
2013,08,22,09,31,19.30
2013,08,22,09,32,19.30
2013,08,22,09,33,19.30
2013,08,22,09,34,19.30
2013,08,22,09,35,19.30
2013,08,22,09,36,19.30
2013,08,22,09,37,19.40
2013,08,22,09,38,19.40
2013,08,22,09,39,19.40
2013,08,22,09,40,19.40
2013,08,22,09,41,19.50
2013,08,22,09,42,19.50
2013,08,22,09,43,19.50
2013,08,22,09,44,19.60
2013,08,22,09,45,19.60
2013,08,22,09,46,19.70
2013,08,22,09,47,19.80
2013,08,22,09,48,19.80
2013,08,22,09,49,19.90
2013,08,22,09,50,19.90
2013,08,22,09,51,20.00
2013,08,22,09,52,20.10
2013,08,22,09,53,20.10
2013,08,22,09,54,20.20
2013,08,22,09,55,20.20
2013,08,22,09,56,20.20
2013,08,22,09,57,20.20
2013,08,22,09,58,20.20
2013,08,22,09,59,20.20
2013,08,22,10,00,20.30
2013,08,22,10,01,20.30
2013,08,22,10,02,20.40
2013,08,22,10,03,20.30
2013,08,22,10,04,20.30
2013,08,22,10,05,20.30
2013,08,22,10,06,20.30
2013,08,22,10,07,20.20
2013,08,22,10,08,20.20
2013,08,22,10,09,20.30
2013,08,22,10,10,20.30
2013,08,22,10,11,20.40
2013,08,22,10,12,20.50
2013,08,22,10,13,20.50
2013,08,22,10,14,20.60
2013,08,22,10,15,20.60
2013,08,22,10,16,20.60
2013,08,22,10,17,20.60
2013,08,22,10,18,20.60
2013,08,22,10,19,20.60
2013,08,22,10,20,20.70
2013,08,22,10,21,20.70
2013,08,22,10,22,20.80
2013,08,22,10,23,20.80
2013,08,22,10,24,20.90
2013,08,22,10,25,20.90
2013,08,22,10,26,20.90
2013,08,22,10,27,21.00
2013,08,22,10,28,21.00
2013,08,22,10,29,21.00
2013,08,22,10,30,21.10
2013,08,22,10,31,21.10
2013,08,22,10,32,21.20
2013,08,22,10,33,21.20
2013,08,22,10,34,21.20
2013,08,22,10,35,21.30
2013,08,22,10,36,21.40
2013,08,22,10,37,21.40
2013,08,22,10,38,21.40
2013,08,22,10,39,21.50
2013,08,22,10,40,21.60
2013,08,22,10,41,21.70
2013,08,22,10,42,21.80
2013,08,22,10,43,21.80
2013,08,22,10,44,21.80
2013,08,22,10,45,21.80
2013,08,22,10,46,21.80
2013,08,22,10,47,21.90
2013,08,22,10,48,21.90
2013,08,22,10,49,21.90
2013,08,22,10,50,21.90
2013,08,22,10,51,21.90
2013,08,22,10,52,22.00
2013,08,22,10,53,22.00
2013,08,22,10,54,22.00
2013,08,22,10,55,22.00
2013,08,22,10,56,22.10
2013,08,22,10,57,22.10
2013,08,22,10,58,22.10
2013,08,22,10,59,22.20
2013,08,22,11,00,22.30
2013,08,22,11,01,22.30
2013,08,22,11,02,22.40
2013,08,22,11,03,22.50
2013,08,22,11,04,22.50
2013,08,22,11,05,22.50
2013,08,22,11,06,22.50
2013,08,22,11,07,22.50
2013,08,22,11,08,22.60
2013,08,22,11,09,22.60
2013,08,22,11,10,22.60
2013,08,22,11,11,22.70
2013,08,22,11,12,22.70
2013,08,22,11,13,22.60
2013,08,22,11,14,22.60
2013,08,22,11,15,22.60
2013,08,22,11,16,22.60
2013,08,22,11,17,22.70
2013,08,22,11,18,22.70
2013,08,22,11,19,22.70
2013,08,22,11,20,22.70
2013,08,22,11,21,22.80
2013,08,22,11,22,22.80
2013,08,22,11,23,22.80
2013,08,22,11,24,22.80
2013,08,22,11,25,22.80
2013,08,22,11,26,22.80
2013,08,22,11,27,22.80
2013,08,22,11,28,22.80
2013,08,22,11,29,22.80
2013,08,22,11,30,22.80
2013,08,22,11,31,22.90
2013,08,22,11,32,22.90
2013,08,22,11,33,22.90
2013,08,22,11,34,22.90
2013,08,22,11,35,22.90
2013,08,22,11,36,22.90
2013,08,22,11,37,22.90
2013,08,22,11,38,22.90
2013,08,22,11,39,22.90
2013,08,22,11,40,22.90
2013,08,22,11,41,22.90
2013,08,22,11,42,22.90
2013,08,22,11,43,23.00
2013,08,22,11,44,23.00
2013,08,22,11,45,23.00
2013,08,22,11,46,23.00
2013,08,22,11,47,23.10
2013,08,22,11,48,23.10
2013,08,22,11,49,23.20
2013,08,22,11,50,23.20
2013,08,22,11,51,23.10
2013,08,22,11,52,23.10
2013,08,22,11,53,23.10
2013,08,22,11,54,23.10
2013,08,22,11,55,23.10
2013,08,22,11,56,23.10
2013,08,22,11,57,23.10
2013,08,22,11,58,23.10
2013,08,22,11,59,23.10
2013,08,22,12,00,23.10
2013,08,22,12,01,23.10
2013,08,22,12,02,23.10
2013,08,22,12,03,23.10
2013,08,22,12,04,23.20
2013,08,22,12,05,23.30
2013,08,22,12,06,23.30
2013,08,22,12,07,23.30
2013,08,22,12,08,23.40
2013,08,22,12,09,23.40
2013,08,22,12,10,23.40
2013,08,22,12,11,23.30
2013,08,22,12,12,23.40
2013,08,22,12,13,23.40
2013,08,22,12,14,23.40
2013,08,22,12,15,23.40
2013,08,22,12,16,23.40
2013,08,22,12,17,23.40
2013,08,22,12,18,23.40
2013,08,22,12,19,23.50
2013,08,22,12,20,23.50
2013,08,22,12,21,23.60
2013,08,22,12,22,23.60
2013,08,22,12,23,23.70
2013,08,22,12,24,23.70
2013,08,22,12,25,23.70
2013,08,22,12,26,23.70
2013,08,22,12,27,23.70
2013,08,22,12,28,23.80
2013,08,22,12,29,23.80
2013,08,22,12,30,23.80
2013,08,22,12,31,23.90
2013,08,22,12,32,23.90
2013,08,22,12,33,23.90
2013,08,22,12,34,23.90
2013,08,22,12,35,24.00
2013,08,22,12,36,24.00
2013,08,22,12,37,24.00
2013,08,22,12,38,24.00
2013,08,22,12,39,23.90
2013,08,22,12,40,23.90
2013,08,22,12,41,23.90
2013,08,22,12,42,23.90
2013,08,22,12,43,23.90
2013,08,22,12,44,23.90
2013,08,22,12,45,23.90
2013,08,22,12,46,24.00
2013,08,22,12,47,24.00
2013,08,22,12,48,24.10
2013,08,22,12,49,24.10
2013,08,22,12,50,24.20
2013,08,22,12,51,24.20
2013,08,22,12,52,24.20
2013,08,22,12,53,24.20
2013,08,22,12,54,24.30
2013,08,22,12,55,24.30
2013,08,22,12,56,24.40
2013,08,22,12,57,24.40
2013,08,22,12,58,24.40
2013,08,22,12,59,24.40
2013,08,22,13,00,24.40
2013,08,22,13,01,24.40
2013,08,22,13,02,24.30
2013,08,22,13,03,24.30
2013,08,22,13,04,24.30
2013,08,22,13,05,24.20
2013,08,22,13,06,24.20
2013,08,22,13,07,24.20
2013,08,22,13,08,24.20
2013,08,22,13,09,24.30
2013,08,22,13,10,24.30
2013,08,22,13,11,24.40
2013,08,22,13,12,24.50
2013,08,22,13,13,24.60
2013,08,22,13,14,24.70
2013,08,22,13,15,24.80
2013,08,22,13,16,24.80
2013,08,22,13,17,24.90
2013,08,22,13,18,24.90
2013,08,22,13,19,24.90
2013,08,22,13,20,24.90
2013,08,22,13,21,25.00
2013,08,22,13,22,25.00
2013,08,22,13,23,25.00
2013,08,22,13,24,25.00
2013,08,22,13,25,24.90
2013,08,22,13,26,24.90
2013,08,22,13,27,24.90
2013,08,22,13,28,24.80
2013,08,22,13,29,24.90
2013,08,22,13,30,24.90
2013,08,22,13,31,24.90
2013,08,22,13,32,24.90
2013,08,22,13,33,24.90
2013,08,22,13,34,24.90
2013,08,22,13,35,24.90
2013,08,22,13,36,25.00
2013,08,22,13,37,25.00
2013,08,22,13,38,25.10
2013,08,22,13,39,25.10
2013,08,22,13,40,25.10
2013,08,22,13,41,25.20
2013,08,22,13,42,25.20
2013,08,22,13,43,25.20
2013,08,22,13,44,25.20
2013,08,22,13,45,25.30
2013,08,22,13,46,25.30
2013,08,22,13,47,25.30
2013,08,22,13,48,25.30
2013,08,22,13,49,25.30
2013,08,22,13,50,25.30
2013,08,22,13,51,25.40
2013,08,22,13,52,25.40
2013,08,22,13,53,25.30
2013,08,22,13,54,25.20
2013,08,22,13,55,25.20
2013,08,22,13,56,25.10
2013,08,22,13,57,25.00
2013,08,22,13,58,25.00
2013,08,22,13,59,25.00
2013,08,22,14,00,25.00
2013,08,22,14,01,25.10
2013,08,22,14,02,25.10
2013,08,22,14,03,25.20
2013,08,22,14,04,25.20
2013,08,22,14,05,25.20
2013,08,22,14,06,25.30
2013,08,22,14,07,25.30
2013,08,22,14,08,25.30
2013,08,22,14,09,25.30
2013,08,22,14,10,25.40
2013,08,22,14,11,25.50
2013,08,22,14,12,25.50
2013,08,22,14,13,25.60
2013,08,22,14,14,25.60
2013,08,22,14,15,25.70
2013,08,22,14,16,25.80
2013,08,22,14,17,25.80
2013,08,22,14,18,25.90
2013,08,22,14,19,25.90
2013,08,22,14,20,26.00
2013,08,22,14,21,26.00
2013,08,22,14,22,26.00
2013,08,22,14,23,26.00
2013,08,22,14,24,26.00
2013,08,22,14,25,26.00
2013,08,22,14,26,26.00
2013,08,22,14,27,25.90
2013,08,22,14,28,25.80
2013,08,22,14,29,25.80
2013,08,22,14,30,25.80
2013,08,22,14,31,25.70
2013,08,22,14,32,25.80
2013,08,22,14,33,25.80
2013,08,22,14,34,25.80
2013,08,22,14,35,25.80
2013,08,22,14,36,25.70
2013,08,22,14,37,25.70
2013,08,22,14,38,25.70
2013,08,22,14,39,25.70
2013,08,22,14,40,25.70
2013,08,22,14,41,25.80
2013,08,22,14,42,25.80
2013,08,22,14,43,25.90
2013,08,22,14,44,25.90
2013,08,22,14,45,25.90
2013,08,22,14,46,25.90
2013,08,22,14,47,25.90
2013,08,22,14,48,26.00
2013,08,22,14,49,26.00
2013,08,22,14,50,26.10
2013,08,22,14,51,26.20
2013,08,22,14,52,26.20
2013,08,22,14,53,26.20
2013,08,22,14,54,26.20
2013,08,22,14,55,26.30
2013,08,22,14,56,26.40
2013,08,22,14,57,26.50
2013,08,22,14,58,26.60
2013,08,22,14,59,26.60
2013,08,22,15,00,26.70
2013,08,22,15,01,26.80
2013,08,22,15,02,26.80
2013,08,22,15,03,26.80
2013,08,22,15,04,26.90
2013,08,22,15,05,26.90
2013,08,22,15,06,27.00
2013,08,22,15,07,27.00
2013,08,22,15,08,27.10
2013,08,22,15,09,27.20
2013,08,22,15,10,27.20
2013,08,22,15,11,27.20
2013,08,22,15,12,27.20
2013,08,22,15,13,27.20
2013,08,22,15,14,27.30
2013,08,22,15,15,27.30
2013,08,22,15,16,27.30
2013,08,22,15,17,27.30
2013,08,22,15,18,27.40
2013,08,22,15,19,27.40
2013,08,22,15,20,27.40
2013,08,22,15,21,27.40
2013,08,22,15,22,27.30
2013,08,22,15,23,27.20
2013,08,22,15,24,27.20
2013,08,22,15,25,27.20
2013,08,22,15,26,27.20
2013,08,22,15,27,27.10
2013,08,22,15,28,27.10
2013,08,22,15,29,27.10
2013,08,22,15,30,27.20
2013,08,22,15,31,27.20
2013,08,22,15,32,27.20
2013,08,22,15,33,27.20
2013,08,22,15,34,27.10
2013,08,22,15,35,27.10
2013,08,22,15,36,27.10
2013,08,22,15,37,27.10
2013,08,22,15,38,27.00
2013,08,22,15,39,27.00
2013,08,22,15,40,26.90
2013,08,22,15,41,26.90
2013,08,22,15,42,26.90
2013,08,22,15,43,27.00
2013,08,22,15,44,27.10
2013,08,22,15,45,27.10
2013,08,22,15,46,27.10
2013,08,22,15,47,27.20
2013,08,22,15,48,27.20
2013,08,22,15,49,27.20
2013,08,22,15,50,27.30
2013,08,22,15,51,27.30
2013,08,22,15,52,27.30
2013,08,22,15,53,27.40
2013,08,22,15,54,27.50
2013,08,22,15,55,27.50
2013,08,22,15,56,27.60
2013,08,22,15,57,27.70
2013,08,22,15,58,27.70
2013,08,22,15,59,27.70
2013,08,22,16,00,27.70
2013,08,22,16,01,27.70
2013,08,22,16,02,27.70
2013,08,22,16,03,27.80
2013,08,22,16,04,27.90
2013,08,22,16,05,28.00
2013,08,22,16,06,28.10
2013,08,22,16,07,28.10
2013,08,22,16,08,28.10
2013,08,22,16,09,28.00
2013,08,22,16,10,27.90
2013,08,22,16,11,27.80
2013,08,22,16,12,27.80
2013,08,22,16,13,27.80
2013,08,22,16,14,27.80
2013,08,22,16,15,27.80
2013,08,22,16,16,27.80
2013,08,22,16,17,27.70
2013,08,22,16,18,27.80
2013,08,22,16,19,27.70
2013,08,22,16,20,27.70
2013,08,22,16,21,27.60
2013,08,22,16,22,27.60
2013,08,22,16,23,27.60
2013,08,22,16,24,27.50
2013,08,22,16,25,27.50
2013,08,22,16,26,27.40
2013,08,22,16,27,27.40
2013,08,22,16,28,27.40
2013,08,22,16,29,27.40
2013,08,22,16,30,27.40
2013,08,22,16,31,27.40
2013,08,22,16,32,27.40
2013,08,22,16,33,27.40
2013,08,22,16,34,27.40
2013,08,22,16,35,27.30
2013,08,22,16,36,27.30
2013,08,22,16,37,27.20
2013,08,22,16,38,27.10
2013,08,22,16,39,27.10
2013,08,22,16,40,27.10
2013,08,22,16,41,27.10
2013,08,22,16,42,27.10
2013,08,22,16,43,27.10
2013,08,22,16,44,27.00
2013,08,22,16,45,27.00
2013,08,22,16,46,27.00
2013,08,22,16,47,27.00
2013,08,22,16,48,27.00
2013,08,22,16,49,27.10
2013,08,22,16,50,27.20
2013,08,22,16,51,27.20
2013,08,22,16,52,27.20
2013,08,22,16,53,27.10
2013,08,22,16,54,27.00
2013,08,22,16,55,26.90
2013,08,22,16,56,26.90
2013,08,22,16,57,26.80
2013,08,22,16,58,26.80
2013,08,22,16,59,26.80
2013,08,22,17,00,26.80
2013,08,22,17,01,26.80
2013,08,22,17,02,26.80
2013,08,22,17,03,26.80
2013,08,22,17,04,26.80
2013,08,22,17,05,26.80
2013,08,22,17,06,26.80
2013,08,22,17,07,26.80
2013,08,22,17,08,26.90
2013,08,22,17,09,27.00
2013,08,22,17,10,27.00
2013,08,22,17,11,27.10
2013,08,22,17,12,27.10
2013,08,22,17,13,27.20
2013,08,22,17,14,27.20
2013,08,22,17,15,27.20
2013,08,22,17,16,27.20
2013,08,22,17,17,27.20
2013,08,22,17,18,27.20
2013,08,22,17,19,27.20
2013,08,22,17,20,27.20
2013,08,22,17,21,27.20
2013,08,22,17,22,27.10
2013,08,22,17,23,27.10
2013,08,22,17,24,27.10
2013,08,22,17,25,27.10